Showing default

SECOR 8 (EGRS 8), 2520

Orbit data source: Space-Track

SECOR 8 (EGRS 8), 2520 is an American payload satellite in LEO that was launched on Wed, 05 Oct 1966 UTC via an ATLAS SLV-3 AGENA D launch vehicle from the Air Force Western Test Range (AFWTR). Payload-class satellites include a variety of spacecraft equipped with specific instruments for various scientific and technological missions. These include communications satellites like Starlink; space stations such as the ISS; scientific satellites like the Hubble; Earth observation satellites from companies like Planet Labs, Umbra, and HawkEye 360; GPS; miniature CubeSats for education and research; and military/defense satellites.

Loading next visibility...
Identifier
2520, 1966-089B
Orbit
LEO
Country
Flag of USUS
Related business
Manufacturer
ITT
Mission
Spacecraft
Bus & Motor
SECOR, Unknown motor
Mass
18 kg wet, 18 kg dry
Launch date (UTC)
1966-10-05 (59 years ago)
Launch vehicle
ATLAS SLV-3 AGENA D
Launch site
Air Force Western Test Range (AFWTR)
Object type
Payload
Rocket body
Debris
Shape & HBR
Unknown
Radar Cross Section
Medium (>0.1 m² and <1 m²)

Expand to show TLE details & history
Last TLE update: 1 day ago

TLE from 1 day ago
0 SECOR 8 (EGRS 8)
1 02520U 66089B   26037.38280107 -.00000002  00000-0 -17092-2 0  9990
2 02520  89.8349  32.1973 0015302  79.5836 280.6739  8.58894188370729
Epoch: 2026-02-06T09:11Z
TLE epoch observation values (Epoch: 2026-02-06T09:11:14.012Z)
Latitude
-0.00001°
Longitude
117.86745°
Altitude
3,693.054 km
Speed
6.293 km/s
True Right ascension
02h 08m 47s
True Declination
0° 00' 00"
Sunlit
Object was in daylight at epoch
Visualization orbit readout
Latitude
Unknown
Longitude
Unknown
Altitude
Unknown
Speed
Unknown
Apparent Right ascension
Unknown
Apparent Declination
Unknown
Sunlit
N/A
Visualization observer readout
Local Sidereal Time
15:40:28
Azimuth
Unknown
Elevation
Unknown
Doppler factor
Unknown
Orbital elements
Apogee altitude
3,706.93 km
Perigee altitude
3,676.113 km
Semi-major axis
10,069.658 km
Eccentricity
0.00153
Inclination
89.8349°
RAAN
32.1973°
Arg. of periapsis
79.5836°
True anomaly
280.50153°
Mean anomaly
280.6739°
Eccentric anomaly
280.58772°
Mean motion
2.14793 °/min
Orbital period
167.6 mins
BSTAR
-0.0017092
Loading maneuver chart data...
Computing Atmospheric mass density...
Loading historical data...
Loading historical data...
Loading historical data...
Loading historical data...
Loading historical data...
Loading historical data...
Loading historical data...
Other satellites on launch #89 in the year 1966 (1966-10-05 UTC)

Documentation

Showing up to 5 results
|